Stations météo

réclame
Mon MeteoGroup
Vitoria, Espagne (8080): Température de l'air & dewpoint: 11.01.2020 23:00:00 - 17.01.2020 23:00:00 (CET)Vitoria, Espagne (8080): Vitesse du vent: 11.01.2020 23:00:00 - 17.01.2020 23:00:00 (CET)Vitoria, Espagne (8080): Direction du vent: 11.01.2020 23:00:00 - 17.01.2020 23:00:00 (CET)Vitoria, Espagne (8080): reduced air pressure: 11.01.2020 23:00:00 - 17.01.2020 23:00:00 (CET)Vitoria, Espagne (8080): visibility: 11.01.2020 23:00:00 - 17.01.2020 23:00:00 (CET)
Date & Time tt [°C] td [°C] ff [km/h] ff [knt] dd ppp [hPa] vv [km]
17.01.2020 23:00:00 2,2 0,7 4 2 NE 1034,5 -
17.01.2020 22:00:00 4,4 2,6 4 2 W 1034,4 20
17.01.2020 21:00:00 5,3 3,2 4 2 ENE 1034,1 -
17.01.2020 20:00:00 5,6 3,4 5 3 E 1033,9 -
17.01.2020 19:00:00 6,0 1,3 8 4 NNW 1033,4 25
17.01.2020 18:00:00 5,9 2,2 4 2 NNE 1032,9 -
17.01.2020 17:00:00 8,1 1,9 0 0 N 1031,5 -
17.01.2020 16:00:00 8,6 2,4 13 7 N 1030,7 25
17.01.2020 15:00:00 7,8 2,5 28 15 NW 1030,4 -
17.01.2020 14:00:00 9,3 3,5 5 3 N 1029,7 20
17.01.2020 13:00:00 8,5 3,5 13 7 NNW 1029,8 20
17.01.2020 12:00:00 8,0 3,6 15 8 W 1030,2 -
17.01.2020 11:00:00 7,3 3,4 16 9 NNW 1029,5 -
17.01.2020 10:00:00 7,5 6,0 9 5 NNE 1028,1 15
17.01.2020 09:00:00 7,4 5,4 9 5 SSW 1027,1 -
17.01.2020 08:00:00 7,8 5,6 9 5 WNW 1026,1 15
17.01.2020 07:00:00 8,3 6,1 22 12 SSW 1024,9 15
17.01.2020 06:00:00 8,7 5,1 15 8 SSW 1024,3 -
17.01.2020 05:00:00 8,9 4,5 8 4 S 1024,6 -
17.01.2020 04:00:00 8,6 4,3 26 14 SSW 1024,3 25
17.01.2020 03:00:00 9,2 4,2 18 10 SSW 1024,0 -
17.01.2020 02:00:00 10,7 3,5 28 15 SW 1022,7 -
17.01.2020 01:00:00 10,7 3,5 22 12 SSW 1022,7 25
17.01.2020 00:00:00 10,8 3,6 29 16 SW 1023,5 -
16.01.2020 23:00:00 9,6 4,6 18 10 SW 1023,7 -
16.01.2020 22:00:00 9,5 5,1 9 5 WSW 1023,0 20
16.01.2020 21:00:00 8,0 5,6 9 5 WSW 1022,7 -
16.01.2020 20:00:00 8,4 5,6 8 4 SSW 1022,5 -
16.01.2020 19:00:00 8,8 5,4 9 5 SW 1021,5 20
16.01.2020 18:00:00 10,8 6,1 13 7 SW 1021,3 -
16.01.2020 17:00:00 13,6 6,3 18 10 SSW 1020,6 -
16.01.2020 16:00:00 13,7 6,3 18 10 SW 1020,9 25
16.01.2020 15:00:00 13,3 6,5 24 13 SW 1021,0 -
16.01.2020 14:00:00 11,2 5,3 24 13 SW 1022,4 25
16.01.2020 13:00:00 11,0 5,3 22 12 SW 1023,7 20
16.01.2020 12:00:00 10,5 5,2 18 10 SW 1024,8 -
16.01.2020 11:00:00 5,7 3,8 16 9 SW 1026,1 -
16.01.2020 10:00:00 4,9 3,2 11 6 W 1026,4 10
16.01.2020 09:00:00 4,4 2,6 8 4 WNW 1026,1 -
16.01.2020 08:00:00 5,0 2,8 15 8 WSW 1025,9 10
16.01.2020 07:00:00 5,0 3,0 13 7 W 1025,2 -
16.01.2020 06:00:00 4,0 2,6 9 5 SSW 1025,4 -
16.01.2020 05:00:00 5,4 3,1 11 6 WSW 1025,3 -
16.01.2020 04:00:00 6,4 3,6 11 6 WSW 1025,3 10
16.01.2020 03:00:00 4,9 3,4 4 2 NNE 1026,0 -
16.01.2020 02:00:00 4,0 3,1 2 1 E 1026,2 -
16.01.2020 01:00:00 3,3 2,6 2 1 WNW 1026,8 15
16.01.2020 00:00:00 2,1 0,8 4 2 E 1027,1 -
15.01.2020 23:00:00 5,5 3,3 13 7 WSW 1026,2 -
15.01.2020 22:00:00 3,2 1,9 0 0 N 1026,8 15
15.01.2020 21:00:00 3,0 0,9 4 2 E 1026,6 -
15.01.2020 20:00:00 6,4 3,6 9 5 SW 1025,9 -
15.01.2020 19:00:00 7,0 3,6 15 8 SW 1025,0 15
15.01.2020 18:00:00 8,9 4,4 11 6 SSW 1024,0 -
15.01.2020 17:00:00 12,1 5,3 11 6 SSW 1022,6 -
15.01.2020 16:00:00 11,3 5,1 22 12 SW 1021,8 20
15.01.2020 15:00:00 11,1 4,1 22 12 SSW 1021,7 -
15.01.2020 14:00:00 10,1 3,5 21 11 SW 1021,7 25
15.01.2020 13:00:00 8,2 3,4 9 5 W 1022,2 25
15.01.2020 12:00:00 8,5 3,3 9 5 SW 1022,7 -
15.01.2020 11:00:00 6,4 2,1 16 9 SSW 1022,7 -
15.01.2020 10:00:00 6,7 1,8 9 5 S 1021,6 20
15.01.2020 09:00:00 5,3 1,9 11 6 SW 1021,0 -
15.01.2020 08:00:00 5,5 1,6 11 6 SSW 1020,4 20
15.01.2020 07:00:00 5,1 1,6 9 5 W 1020,0 15
15.01.2020 06:00:00 5,9 1,8 11 6 SW 1019,5 -
15.01.2020 05:00:00 6,3 2,1 9 5 SW 1019,5 -
15.01.2020 04:00:00 5,0 1,3 9 5 S 1020,0 15
15.01.2020 03:00:00 4,7 1,0 21 11 W 1020,0 -
15.01.2020 02:00:00 5,2 0,9 13 7 WSW 1019,6 -
15.01.2020 01:00:00 4,7 0,6 8 4 W 1019,8 15
15.01.2020 00:00:00 5,4 0,8 15 8 W 1019,8 -
14.01.2020 23:00:00 4,9 0,5 15 8 W 1019,6 -
14.01.2020 22:00:00 6,0 0,7 16 9 SW 1019,5 15
14.01.2020 21:00:00 6,1 0,8 11 6 W 1019,1 -
14.01.2020 20:00:00 7,3 1,1 11 6 W 1018,6 -
14.01.2020 19:00:00 9,3 1,3 26 14 SSW 1018,1 20
14.01.2020 18:00:00 10,3 1,7 35 19 SSW 1017,7 -
14.01.2020 17:00:00 11,6 2,5 37 20 SSW 1017,2 -
14.01.2020 16:00:00 11,1 2,4 37 20 SW 1017,5 30
14.01.2020 15:00:00 11,8 2,5 31 17 SW 1017,6 -
14.01.2020 14:00:00 11,2 2,7 41 22 SSW 1018,1 25
14.01.2020 13:00:00 9,9 3,1 21 11 SW 1019,9 25
14.01.2020 12:00:00 8,3 3,1 21 11 SSW 1020,5 -
14.01.2020 11:00:00 7,2 2,9 28 15 SSW 1020,8 -
14.01.2020 10:00:00 7,4 3,1 26 14 SW 1020,4 25
14.01.2020 09:00:00 6,3 2,7 18 10 SW 1020,3 -
14.01.2020 08:00:00 6,3 2,7 18 10 S 1020,4 15
14.01.2020 07:00:00 6,2 2,5 16 9 SSW 1019,9 10
14.01.2020 06:00:00 6,1 2,2 11 6 SSW 1020,0 -
14.01.2020 05:00:00 6,2 2,1 15 8 SSW 1020,2 -
14.01.2020 04:00:00 6,0 1,5 24 13 SW 1020,6 10
14.01.2020 03:00:00 6,2 1,3 37 20 SW 1020,2 -
14.01.2020 02:00:00 5,4 0,4 24 13 SSW 1020,6 -
14.01.2020 01:00:00 4,9 0,1 22 12 SW 1021,3 10
14.01.2020 00:00:00 5,3 0,1 26 14 SSW 1021,8 -
13.01.2020 23:00:00 6,0 0,1 34 18 SW 1021,3 -
13.01.2020 22:00:00 6,1 0,2 37 20 SW 1021,5 10
13.01.2020 21:00:00 5,4 0,2 28 15 SSW 1021,3 -
13.01.2020 20:00:00 5,8 0,1 18 10 SSW 1020,9 -
13.01.2020 19:00:00 6,8 0,2 24 13 SW 1021,0 12
13.01.2020 18:00:00 7,9 0,3 22 12 SW 1021,0 -
13.01.2020 17:00:00 8,9 0,6 13 7 SW 1020,9 -
13.01.2020 16:00:00 9,9 0,8 22 12 SW 1020,6 25
13.01.2020 15:00:00 9,9 1,6 15 8 SSW 1021,0 -
13.01.2020 14:00:00 8,0 0,9 9 5 SW 1022,3 25
13.01.2020 13:00:00 6,8 1,6 15 8 SW 1024,2 25
13.01.2020 12:00:00 3,9 1,9 13 7 S 1025,8 -
13.01.2020 11:00:00 0,0 0,0 4 2 E 1026,9 -
13.01.2020 10:00:00 -1,2 -1,3 8 4 ENE 1027,3 0,3
13.01.2020 09:00:00 -1,8 -1,9 4 2 N 1027,7 -
13.01.2020 08:00:00 -1,7 -1,8 2 1 NW 1028,0 0,1
13.01.2020 07:00:00 -2,1 -2,2 4 2 NNE 1028,1 0,2
13.01.2020 06:00:00 -2,1 -2,2 0 0 N 1028,6 -
13.01.2020 05:00:00 -2,2 -2,3 0 0 N 1029,4 -
13.01.2020 04:00:00 -2,1 -2,1 0 0 N 1030,3 0,2
13.01.2020 03:00:00 -2,0 -2,0 0 0 N 1030,6 -
13.01.2020 02:00:00 -1,7 -1,8 2 1 NE 1030,9 -
13.01.2020 01:00:00 -1,5 -1,5 2 1 WSW 1031,8 0,2
13.01.2020 00:00:00 -1,6 -1,7 0 0 N 1032,4 -
12.01.2020 23:00:00 -2,3 -2,4 2 1 SSE 1032,6 -
12.01.2020 22:00:00 -2,4 -2,6 0 0 N 1032,7 0,5
12.01.2020 21:00:00 -1,9 -2,2 0 0 N 1033,1 -
12.01.2020 20:00:00 -0,8 -1,2 4 2 E 1033,2 -
12.01.2020 19:00:00 1,2 0,8 2 1 N 1032,4 15
12.01.2020 18:00:00 3,1 1,8 4 2 SSW 1031,9 -
12.01.2020 17:00:00 3,8 2,5 5 3 W 1031,9 -
12.01.2020 16:00:00 3,7 2,2 2 1 WNW 1032,0 8
12.01.2020 15:00:00 1,5 1,4 2 1 N 1032,9 -
12.01.2020 14:00:00 0,8 0,8 2 1 NW 1033,8 1,0
12.01.2020 13:00:00 -0,4 -0,5 2 1 NW 1035,1 0,5
12.01.2020 12:00:00 -1,1 -1,2 4 2 NNW 1036,0 -
12.01.2020 11:00:00 -1,9 -2,0 2 1 SE 1036,4 -
12.01.2020 10:00:00 -2,4 -2,5 0 0 N 1035,9 0,2
12.01.2020 09:00:00 -2,6 -2,7 4 2 W 1035,5 -
12.01.2020 08:00:00 -2,5 -2,6 4 2 W 1035,2 0,2
12.01.2020 07:00:00 -2,5 -2,6 0 0 N 1035,1 0,2
12.01.2020 06:00:00 -2,5 -2,6 0 0 N 1034,6 -
12.01.2020 05:00:00 -2,3 -2,4 2 1 S 1034,7 -
12.01.2020 04:00:00 -1,8 -1,9 0 0 N 1034,6 0,2
12.01.2020 03:00:00 -1,7 -1,8 0 0 N 1034,3 -
12.01.2020 02:00:00 -2,1 -2,2 0 0 N 1034,4 -
12.01.2020 01:00:00 -3,4 -3,5 0 0 N 1034,8 0,6
12.01.2020 00:00:00 -3,2 -3,4 2 1 E 1034,9 -
11.01.2020 23:00:00 -3,0 -3,3 0 0 N 1034,5 -

tt = Température de l'air
td = dewpoint
ff = Vitesse du vent
dd = Direction du vent
ppp = reduced air pressure
vv = visibility

stations d'obs. à proximité